Home   Weather   Metz   Past weeks

Flag for France Past Weather in Metz, Lorraine, France — Yesterday and Last 2 Weeks

Now
30 °F

Clear.


Feels Like: 21 °F
Forecast: 27 / 40 °F
Wind: 12 mph from East

Location: Metz-Nancy-Lorraine

Current Time: Dec 4, 2016 at 3:01:52 am

Latest Report: Dec 4, 2016 at 2:30 am


Visibility: 10 mi

Pressure: 30.21 "Hg

Humidity: 80%

Dew Point: 25 °F

Location of MetzLocation

Past Weather in Metz — Graph

°F

Metz Temperature Yesterday

Maximum temperature yesterday: 41 °F (at 1:00 pm)
Minimum temperature yesterday: 28 °F (at 7:30 am)
Average temperature yesterday: 34 °F

High & Low Weather Summary for the Past Weeks

 TemperatureHumidityPressure
High57 °F (Nov 20, 12:30 pm)100% (Nov 19, 9:30 pm)30.57 "Hg (Nov 19, 9:30 pm)
Low19 °F (Nov 30, 7:00 am)45% (Nov 29, 2:00 pm)29.50 "Hg (Nov 20, 8:00 am)
Average41 °F84%30.06 "Hg
* Reported Nov 19 2:00 am — Dec 4 2:00 am, Metz, Weather by CustomWeather, © 2016

Note: Actual official high and low records may vary slightly from our data, if they occured in-between our weather recording intervals... More about our weather records

Advertising

Metz Weather History for the Previous 24 Hours

Scroll right to see more
 ConditionsComfort  
Time TempWeatherWind HumidityBarometerVisibility
2:00 am
Sun, Dec 4
28 °FClear.9 mph86%30.21 "Hg10 mi
1:30 am28 °FClear.17 mph86%30.21 "Hg10 mi
1:00 am30 °FClear.20 mph80%30.18 "Hg10 mi
12:30 am30 °FClear.16 mph80%30.21 "Hg10 mi
12:00 am30 °FClear.16 mph80%30.21 "Hg10 mi
11:30 pm
Sat, Dec 3
30 °FClear.16 mph80%30.18 "Hg10 mi
11:00 pm30 °FClear.15 mph80%30.18 "Hg10 mi
10:30 pm30 °FClear.14 mph80%30.21 "Hg10 mi
10:00 pm30 °FClear.14 mph80%30.21 "Hg10 mi
9:30 pm32 °FClear.15 mph75%30.18 "Hg10 mi
9:00 pm32 °FClear.15 mph75%30.18 "Hg10 mi
8:30 pm32 °FClear.17 mph75%30.18 "Hg10 mi
8:00 pm32 °FClear.15 mph75%30.18 "Hg10 mi
7:30 pm32 °FClear.13 mph75%30.18 "Hg10 mi
7:00 pm32 °FClear.13 mph75%30.18 "Hg10 mi
6:30 pm32 °FClear.12 mph75%30.18 "Hg10 mi
6:00 pm32 °FClear.9 mph75%30.18 "Hg10 mi
5:30 pm34 °FClear.10 mph70%30.18 "Hg10 mi
5:00 pm36 °FClear.12 mph70%30.18 "Hg10 mi
4:30 pm37 °FSunny.13 mph65%30.18 "Hg10 mi
4:00 pm39 °FSunny.14 mph61%30.18 "Hg10 mi
3:30 pm41 °FSunny.14 mph57%30.18 "Hg10 mi
3:00 pm41 °FSunny.15 mph53%30.15 "Hg10 mi
2:30 pm41 °FSunny.16 mph57%30.15 "Hg10 mi
2:00 pm41 °FSunny.14 mph57%30.15 "Hg10 mi
1:30 pm41 °FSunny.17 mph57%30.18 "Hg10 mi
1:00 pm41 °FSunny.16 mph61%30.18 "Hg10 mi
12:30 pm39 °FSunny.14 mph70%30.18 "Hg10 mi
12:00 pm39 °FSunny.14 mph75%30.18 "Hg10 mi
11:30 am37 °FPassing clouds.13 mph81%30.18 "HgN/A
11:00 am36 °FSunny.12 mph87%30.18 "Hg10 mi
10:30 am36 °FSunny.10 mph81%30.18 "Hg10 mi
10:00 am34 °FSunny.12 mph87%30.18 "Hg10 mi
9:30 am32 °FSunny.12 mph93%30.18 "Hg10 mi
9:00 am30 °FPassing clouds.10 mph93%30.18 "HgN/A
8:30 am30 °FSunny.10 mph93%30.18 "Hg10 mi
8:00 am28 °FClear.9 mph100%30.15 "Hg10 mi
7:30 am28 °FClear.9 mph100%30.15 "Hg10 mi
7:00 am30 °FClear.10 mph93%30.15 "Hg10 mi
6:30 am30 °FClear.9 mph93%30.15 "Hg10 mi
6:00 am32 °FClear.10 mph93%30.15 "Hg10 mi
5:30 am32 °FClear.12 mph93%30.15 "Hg10 mi
5:00 am32 °FClear.10 mph93%30.15 "Hg10 mi
4:30 am32 °FClear.10 mph93%30.15 "Hg10 mi
4:00 am34 °FClear.10 mph93%30.15 "Hg10 mi
3:30 am34 °FClear.9 mph93%30.15 "Hg10 mi
3:00 am34 °FClear.10 mph93%30.15 "Hg10 mi
Weather by CustomWeather, © 2016

See weather overviewHow to use our weather pages